QPF
0.00 0.00 0.00 0.00 0.00 0.00 0.00 0.00 0.00 0.00 0.00 0.00 0.00 0.00 0.00 0.00 0.00 0.00 0.00 0.00 0.00 0.00 0.00 0.02 0.00 0.00 0.00 0.00 0.00 0.00 0.00 0.00 0.00 0.00 0.00 0.00 0.00 0.00 0.00 0.00 0.00 0.00 0.00 0.00 0.00
0.00 0.00 0.00 0.00 0.00 0.00 0.00 0.00 0.00 0.00 0.00 0.00 0.00 0.00 0.00 0.00 0.00 0.00 0.00 0.00 0.00 0.00 0.00 0.00 0.00 0.00 0.00 0.00 0.00 0.00 0.00 0.00 0.00 0.00 0.00 0.00 0.00 0.00 0.00 0.00 0.00 0.00 0.00 0.00 0.00
0.00 0.00 0.00 0.00 0.00 0.00 0.00 0.00 0.00 0.00 0.00 0.00 0.00 0.00 0.00 0.00 0.00 0.00 0.00 0.00 0.00 0.00 0.01 0.00 0.00 0.00 0.00 0.00 0.00 0.00 0.00 0.00 0.00 0.00 0.00 0.00 0.00 0.00 0.00 0.00 0.00 0.00 0.00 0.00 0.00
0.00 0.00 0.00 0.00 0.00 0.00 0.00 0.00 0.00 0.00 0.00 0.00 0.00 0.00 0.00 0.00 0.00 0.00 0.00 0.00 0.00 0.00 0.00 0.00 0.00 0.00 0.00 0.00 0.00 0.00 0.00 0.00 0.00 0.00 0.00 0.00 0.00 0.00 0.00 0.00 0.00 0.00 0.00 0.00 0.00
0.00 0.00 0.00 0.00 0.00 0.00 0.00 0.00 0.00 0.00 0.00 0.00 0.00 0.00 0.00 0.00 0.00 0.00 0.00 0.00 0.00 0.00 0.00 0.00 0.00 0.00 0.00 0.00 0.00 0.00 0.00 0.00 0.00 0.00 0.00 0.00 0.00 0.00 0.00 0.00 0.00 0.00 0.00 0.00 0.00
0.00 0.00 0.00 0.00 0.00 0.00 0.00 0.00 0.00 0.00 0.00 0.00 0.00 0.00 0.00 0.00 0.00 0.00 0.00 0.01 0.01 0.00 0.00 0.00 0.00 0.00 0.00 0.00 0.00 0.00 0.00 0.00 0.00 0.00 0.00 0.00 0.00 0.00 0.00 0.00 0.00 0.00 0.00 0.00 0.00
0.00 0.00 0.00 0.00 0.00 0.00 0.00 0.00 0.00 0.00 0.00 0.00 0.00 0.00 0.00 0.00 0.00 0.00 0.01 0.03 0.00 0.00 0.00 0.01 0.02 0.01 0.00 0.00 0.00 0.00 0.00 0.00 0.00 0.00 0.00 0.00 0.00 0.00 0.00 0.00 0.00 0.00 0.00 0.00 0.00
0.00 0.00 0.00 0.00 0.00 0.00 0.00 0.00 0.00 0.00 0.00 0.00 0.00 0.00 0.00 0.00 0.00 0.00 0.02 0.01 0.00 0.00 0.00 0.01 0.00 0.00 0.00 0.00 0.00 0.00 0.00 0.00 0.00 0.00 0.00 0.00 0.00 0.00 0.00 0.00 0.00 0.00 0.00 0.00 0.00
0.00 0.00 0.00 0.00 0.00 0.00 0.00 0.00 0.00 0.00 0.00 0.00 0.00 0.00 0.00 0.00 0.00 0.00 0.00 0.01 0.02 0.00 0.00 0.00 0.00 0.00 0.00 0.00 0.00 0.00 0.00 0.00 0.00 0.00 0.00 0.00 0.00 0.00 0.00 0.00 0.00 0.00 0.00 0.00 0.00
0.00 0.00 0.00 0.00 0.00 0.00 0.00 0.00 0.00 0.00 0.00 0.00 0.00 0.00 0.00 0.00 0.00 0.00 0.00 0.00 0.01 0.00 0.00 0.00 0.00 0.00 0.00 0.00 0.00 0.00 0.00 0.00 0.00 0.00 0.00 0.00 0.00 0.00 0.00 0.00 0.00 0.00 0.00 0.00 0.00
0.00 0.00 0.00 0.00 0.00 0.00 0.00 0.00 0.00 0.00 0.00 0.00 0.00 0.00 0.00 0.00 0.00 0.00 0.00 0.00 0.00 0.00 0.00 0.00 0.00 0.00 0.00 0.00 0.00 0.00 0.00 0.00 0.00 0.00 0.00 0.00 0.00 0.00 0.00 0.00 0.00 0.00 0.00 0.00 0.00
0.00 0.00 0.00 0.00 0.00 0.00 0.00 0.00 0.00 0.00 0.00 0.00 0.00 0.00 0.00 0.00 0.00 0.00 0.00 0.00 0.00 0.00 0.00 0.00 0.00 0.00 0.00 0.00 0.00 0.00 0.00 0.00 0.00 0.00 0.00 0.00 0.00 0.00 0.00 0.00 0.00 0.00 0.00 0.00 0.00
0.00 0.00 0.00 0.00 0.00 0.00 0.00 0.00 0.00 0.00 0.00 0.00 0.00 0.00 0.00 0.00 0.00 0.00 0.00 0.00 0.00 0.00 0.00 0.00 0.00 0.00 0.00 0.00 0.00 0.00 0.00 0.00 0.00 0.00 0.00 0.00 0.00 0.00 0.00 0.00 0.00 0.00 0.00 0.00 0.00
0.00 0.00 0.00 0.00 0.00 0.00 0.00 0.00 0.00 0.00 0.00 0.00 0.00 0.00 0.00 0.00 0.00 0.00 0.00 0.00 0.00 0.00 0.00 0.00 0.00 0.00 0.00 0.00 0.00 0.00 0.00 0.00 0.00 0.00 0.00 0.00 0.00 0.00 0.00 0.00 0.00 0.00 0.00 0.00 0.00
0.00 0.00 0.00 0.00 0.00 0.00 0.00 0.00 0.00 0.00 0.00 0.00 0.00 0.00 0.00 0.00 0.00 0.00 0.00 0.00 0.00 0.00 0.00 0.00 0.00 0.00 0.00 0.00 0.00 0.00 0.00 0.00 0.00 0.00 0.00 0.00 0.00 0.00 0.00 0.00 0.00 0.00 0.00 0.00 0.00
0.00 0.00 0.00 0.00 0.00 0.00 0.00 0.00 0.00 0.00 0.00 0.00 0.00 0.00 0.00 0.00 0.00 0.00 0.00 0.00 0.00 0.00 0.00 0.00 0.00 0.00 0.00 0.00 0.00 0.00 0.00 0.00 0.00 0.00 0.00 0.00 0.00 0.00 0.00 0.00 0.00 0.00 0.00 0.00 0.00
0.00 0.00 0.00 0.00 0.00 0.00 0.00 0.00 0.00 0.00 0.00 0.00 0.00 0.00 0.00 0.00 0.00 0.00 0.00 0.00 0.00 0.00 0.00 0.00 0.00 0.00 0.00 0.00 0.00 0.00 0.00 0.00 0.00 0.00 0.00 0.00 0.00 0.00 0.00 0.00 0.00 0.00 0.00 0.00 0.00
0.00 0.00 0.00 0.00 0.00 0.00 0.00 0.00 0.00 0.00 0.00 0.00 0.00 0.00 0.00 0.00 0.00 0.00 0.00 0.00 0.00 0.00 0.00 0.00 0.00 0.00 0.00 0.00 0.00 0.00 0.00 0.00 0.00 0.00 0.00 0.00 0.00 0.00 0.00 0.00 0.00 0.00 0.00 0.00 0.00
0.00 0.00 0.00 0.00 0.00 0.00 0.00 0.00 0.00 0.00 0.00 0.00 0.00 0.00 0.00 0.00 0.00 0.00 0.00 0.00 0.00 0.00 0.00 0.00 0.00 0.00 0.00 0.00 0.00 0.00 0.00 0.00 0.00 0.00 0.00 0.00 0.00 0.00 0.00 0.00 0.00 0.00 0.00 0.00 0.00
0.00 0.00 0.00 0.00 0.00 0.00 0.00 0.00 0.00 0.00 0.00 0.00 0.00 0.00 0.00 0.00 0.00 0.00 0.00 0.00 0.00 0.00 0.00 0.00 0.00 0.00 0.00 0.00 0.00 0.00 0.00 0.00 0.00 0.00 0.00 0.00 0.00 0.00 0.00 0.00 0.00 0.00 0.00 0.00 0.00
0.00 0.00 0.00 0.00 0.00 0.00 0.00 0.00 0.00 0.00 0.00 0.00 0.00 0.00 0.00 0.00 0.00 0.00 0.00 0.00 0.00 0.00 0.00 0.00 0.00 0.00 0.00 0.00 0.00 0.00 0.00 0.00 0.00 0.00 0.00 0.00 0.00 0.00 0.00 0.00 0.00 0.00 0.00 0.00 0.00
0.00 0.00 0.00 0.00 0.00 0.00 0.00 0.00 0.00 0.00 0.00 0.00 0.00 0.00 0.00 0.00 0.00 0.00 0.00 0.00 0.00 0.00 0.00 0.00 0.00 0.00 0.00 0.00 0.00 0.00 0.00 0.00 0.00 0.00 0.00 0.00 0.00 0.00 0.00 0.00 0.00 0.00 0.00 0.00 0.00
0.00 0.00 0.00 0.00 0.00 0.00 0.00 0.00 0.00 0.00 0.00 0.00 0.00 0.00 0.00 0.00 0.00 0.00 0.00 0.00 0.00 0.00 0.00 0.00 0.00 0.00 0.00 0.00 0.00 0.00 0.00 0.00 0.00 0.00 0.00 0.00 0.00 0.00 0.00 0.00 0.00 0.00 0.00 0.00 0.00
0.00 0.00 0.00 0.00 0.00 0.00 0.00 0.00 0.00 0.00 0.00 0.00 0.00 0.00 0.00 0.00 0.00 0.00 0.00 0.00 0.00 0.00 0.00 0.00 0.00 0.00 0.00 0.00 0.00 0.00 0.00 0.00 0.00 0.00 0.00 0.00 0.00 0.00 0.00 0.00 0.00 0.00 0.00 0.00 0.00
0.00 0.00 0.00 0.00 0.00 0.00 0.00 0.00 0.00 0.00 0.00 0.00 0.00 0.00 0.00 0.00 0.00 0.00 0.00 0.00 0.00 0.00 0.00 0.00 0.00 0.00 0.00 0.00 0.00 0.00 0.00 0.00 0.00 0.00 0.00 0.00 0.00 0.00 0.00 0.00 0.00 0.00 0.00 0.00 0.00
0.00 0.00 0.00 0.00 0.00 0.00 0.00 0.00 0.00 0.00 0.00 0.00 0.00 0.00 0.00 0.00 0.00 0.00 0.00 0.00 0.00 0.00 0.00 0.00 0.00 0.00 0.00 0.00 0.00 0.00 0.00 0.00 0.00 0.00 0.00 0.00 0.00 0.00 0.00 0.00 0.00 0.00 0.00 0.00 0.00
0.00 0.00 0.00 0.00 0.00 0.00 0.00 0.00 0.00 0.00 0.00 0.00 0.00 0.00 0.00 0.00 0.00 0.00 0.00 0.00 0.00 0.00 0.00 0.00 0.00 0.00 0.00 0.00 0.00 0.00 0.00 0.00 0.00 0.00 0.00 0.00 0.00 0.00 0.00 0.00 0.00 0.00 0.00 0.00 0.00
MSLP
1016.72 1016.51 1016.29 1016.04 1015.77 1015.45 1015.13 1014.94 1014.89 1014.90 1014.48 1014.00 1013.60 1013.12 1012.92 1012.53 1011.69 1011.15 1009.38 1008.81 1008.57 1008.87 1008.83 1008.72 1008.52 1008.19 1008.06 1007.57 1007.51 1007.04 1005.11 1004.56 1004.79 1004.74 1004.89 1005.49 1005.43 1006.06 1006.36 1006.65 1007.24 1007.87 1007.84 1008.39 1010.44
1016.68 1016.56 1016.29 1015.95 1015.60 1015.32 1015.00 1014.95 1014.97 1014.82 1014.27 1013.80 1013.44 1013.10 1012.83 1012.45 1010.81 1009.09 1008.37 1008.58 1008.68 1008.77 1008.42 1008.29 1008.07 1008.07 1007.46 1007.27 1006.92 1006.37 1004.81 1004.72 1005.21 1005.26 1005.02 1005.21 1005.16 1005.52 1005.89 1006.44 1007.13 1008.04 1008.63 1009.38 1010.60
1016.63 1016.53 1016.24 1015.79 1015.49 1015.21 1014.95 1015.03 1014.95 1014.59 1014.02 1013.63 1013.34 1013.08 1012.63 1012.22 1009.87 1007.77 1008.15 1008.48 1008.73 1008.72 1008.11 1008.05 1007.97 1008.01 1007.29 1006.97 1006.51 1006.32 1005.15 1005.46 1005.31 1005.15 1005.17 1004.84 1005.05 1005.30 1005.45 1005.82 1006.21 1007.37 1008.84 1009.85 1010.42
1016.61 1016.45 1016.11 1015.71 1015.43 1015.17 1015.02 1015.06 1014.76 1014.22 1013.80 1013.51 1013.33 1012.92 1012.50 1011.22 1008.45 1008.05 1008.45 1008.74 1008.89 1008.07 1007.98 1007.87 1007.78 1007.33 1006.70 1006.28 1006.34 1005.86 1005.78 1005.84 1005.50 1005.16 1004.89 1004.81 1004.96 1005.17 1005.50 1005.77 1006.36 1007.34 1008.78 1009.57 1010.13
1016.54 1016.36 1016.01 1015.65 1015.36 1015.21 1015.12 1014.98 1014.59 1013.93 1013.67 1013.42 1013.15 1012.76 1012.06 1009.65 1007.84 1008.17 1008.50 1008.81 1008.57 1008.16 1008.04 1007.84 1007.61 1007.36 1006.70 1006.41 1006.28 1005.91 1005.64 1005.48 1005.32 1004.82 1004.92 1005.05 1005.08 1005.10 1005.71 1006.36 1006.80 1007.84 1008.90 1009.48 1009.78
1016.42 1016.25 1015.90 1015.49 1015.21 1015.07 1015.00 1014.78 1014.27 1013.85 1013.53 1013.29 1013.00 1012.68 1011.04 1008.44 1007.97 1008.18 1008.04 1008.22 1007.97 1007.91 1007.95 1008.03 1007.68 1007.56 1007.05 1006.64 1006.47 1006.00 1005.71 1005.33 1005.22 1004.88 1004.78 1004.81 1005.05 1005.36 1006.16 1006.62 1007.21 1008.05 1008.66 1009.19 1009.51
1016.26 1016.09 1015.76 1015.39 1015.11 1015.00 1014.87 1014.52 1014.01 1013.81 1013.48 1013.08 1012.83 1012.19 1009.91 1008.10 1008.13 1008.41 1008.08 1008.06 1008.05 1007.92 1007.60 1007.68 1007.82 1007.55 1007.23 1006.69 1006.42 1005.83 1005.07 1004.89 1004.74 1005.34 1004.84 1005.03 1004.76 1005.03 1006.06 1006.48 1007.20 1007.77 1008.47 1008.99 1009.33
1016.10 1015.86 1015.59 1015.25 1015.03 1014.93 1014.69 1014.19 1013.84 1013.57 1013.21 1012.74 1012.58 1011.33 1008.39 1008.02 1008.01 1008.26 1008.10 1007.95 1008.07 1007.98 1007.72 1007.71 1007.72 1007.13 1006.74 1006.37 1005.77 1005.05 1004.87 1003.91 1004.35 1004.71 1005.16 1005.02 1004.23 1005.36 1006.10 1006.33 1006.82 1007.45 1008.13 1008.84 1009.08
1015.93 1015.62 1015.38 1015.07 1014.87 1014.77 1014.33 1013.78 1013.34 1013.13 1012.88 1012.57 1011.83 1010.30 1007.48 1008.35 1007.83 1007.61 1007.61 1007.53 1007.91 1007.80 1007.80 1007.91 1007.41 1006.34 1006.18 1005.28 1004.79 1004.68 1003.83 1003.99 1003.79 1004.18 1004.18 1004.30 1003.90 1004.89 1005.70 1005.94 1006.37 1007.11 1007.62 1008.16 1008.59
1015.77 1015.48 1015.25 1014.94 1014.77 1014.61 1013.97 1013.38 1013.01 1012.88 1012.48 1011.68 1010.81 1009.67 1007.34 1006.89 1007.06 1007.18 1007.60 1007.52 1007.38 1007.18 1006.96 1007.03 1006.46 1005.58 1005.26 1004.57 1003.91 1003.83 1003.22 1003.31 1003.25 1003.66 1003.84 1003.58 1003.45 1003.90 1004.89 1005.44 1005.68 1006.42 1006.98 1007.34 1007.70
1015.55 1015.32 1015.14 1014.88 1014.69 1014.55 1012.97 1012.37 1012.13 1011.29 1010.19 1008.14 1007.61 1007.06 1006.58 1006.95 1006.91 1006.93 1007.21 1007.08 1006.77 1006.68 1005.71 1005.90 1004.77 1003.60 1004.10 1004.23 1004.38 1003.93 1003.37 1002.88 1002.81 1003.47 1003.41 1002.94 1002.97 1002.96 1003.63 1004.62 1005.00 1005.41 1006.03 1006.55 1006.72
1015.30 1015.12 1014.99 1014.83 1014.63 1014.45 1013.72 1010.48 1009.74 1009.86 1007.98 1006.98 1007.04 1006.83 1006.50 1006.44 1006.09 1006.34 1006.65 1006.42 1006.07 1005.40 1005.48 1005.01 1003.91 1004.36 1004.37 1004.22 1003.99 1003.42 1002.74 1002.35 1002.61 1003.01 1003.05 1002.44 1001.79 1002.43 1003.03 1003.79 1004.34 1004.76 1005.04 1005.47 1005.87
1015.16 1014.92 1014.86 1014.75 1014.51 1013.92 1011.53 1009.84 1009.51 1009.28 1007.48 1006.22 1005.96 1005.57 1005.34 1005.98 1005.09 1005.22 1006.02 1005.70 1005.53 1005.24 1004.78 1004.45 1003.90 1004.18 1004.06 1003.60 1003.16 1002.50 1002.38 1002.26 1002.19 1002.53 1002.61 1002.11 1001.60 1001.88 1002.93 1003.25 1003.76 1004.01 1004.25 1004.57 1004.77
1014.99 1014.78 1014.69 1014.61 1014.71 1011.60 1010.23 1009.55 1009.48 1009.34 1006.73 1005.26 1004.83 1004.36 1004.95 1004.79 1004.39 1004.62 1005.33 1005.21 1005.08 1004.87 1004.57 1003.86 1003.91 1003.86 1003.36 1002.86 1002.68 1001.43 1002.71 1002.36 1002.01 1001.51 1000.70 1001.66 1000.71 1001.51 1001.66 1001.85 1002.65 1002.91 1003.38 1003.51 1003.83
1014.80 1014.67 1014.57 1014.86 1012.59 1010.70 1009.89 1009.74 1009.37 1008.89 1005.31 1004.42 1004.06 1004.30 1004.07 1003.94 1003.96 1004.54 1004.97 1004.93 1004.53 1004.37 1004.65 1003.27 1003.28 1003.09 1002.71 1002.55 1002.72 1002.47 1002.53 1002.01 1001.73 1001.21 1000.93 1001.18 1000.04 1000.73 1001.34 1001.21 1001.25 1001.33 1001.84 1002.33 1002.80
1014.59 1014.51 1014.54 1013.85 1012.46 1010.33 1010.17 1009.79 1009.14 1007.12 1004.21 1003.71 1003.51 1003.58 1003.53 1003.53 1003.55 1004.33 1004.64 1004.84 1004.41 1004.02 1003.74 1003.34 1003.22 1003.24 1002.43 1002.59 1002.47 1002.56 1002.18 1001.78 1001.43 1000.63 999.99 1001.09 1000.40 999.80 999.68 1000.18 1000.39 1000.56 1001.00 1001.52 1001.94
1014.36 1014.35 1014.39 1012.66 1010.22 1010.48 1010.13 1008.94 1006.98 1004.62 1004.24 1003.18 1002.83 1002.95 1002.71 1002.78 1003.11 1003.41 1003.76 1003.92 1003.27 1002.89 1002.40 1002.30 1002.04 1002.45 1002.76 1002.00 1002.07 1002.09 1000.55 999.67 999.68 999.25 999.92 1001.18 1000.42 999.66 999.85 1000.17 1000.10 1000.05 1000.33 1000.75 1001.36
1014.13 1014.22 1013.37 1012.18 1011.10 1010.73 1009.54 1007.53 1005.18 1003.91 1003.21 1003.16 1002.66 1002.55 1002.34 1002.57 1002.86 1003.13 1003.02 1002.67 1003.02 1002.97 1002.14 1001.32 1001.51 1001.87 1002.22 1001.71 1001.29 1000.86 1000.52 999.77 999.79 999.39 999.91 1001.12 999.98 999.62 1000.10 1000.42 1000.56 1000.70 1000.66 1000.64 1001.17
1013.95 1013.04 1011.78 1010.65 1011.18 1010.71 1008.40 1005.80 1003.72 1003.41 1003.28 1002.77 1002.74 1002.31 1002.18 1002.77 1003.06 1002.91 1002.48 1001.79 1002.02 1002.52 1001.73 1001.27 1001.20 1001.84 1002.05 1001.86 1001.72 1001.15 1000.47 1000.59 1000.06 1000.25 1000.14 999.77 999.97 999.53 1000.16 1000.17 1000.30 1000.36 1000.49 1000.38 1000.66
1012.23 1011.07 1010.10 1010.51 1010.69 1009.82 1007.36 1004.98 1003.98 1003.78 1003.45 1003.05 1001.99 1001.90 1001.78 1002.30 1002.80 1002.28 1001.68 1001.62 1001.80 1002.06 1001.95 1001.83 1001.19 1001.50 1001.78 1001.80 1001.84 1001.45 1001.37 1000.47 999.82 1000.02 999.82 999.30 999.71 999.21 999.98 1000.15 1000.37 1000.07 1000.02 999.98 1000.11
1011.92 1009.43 1010.10 1010.27 1010.04 1008.34 1005.86 1004.45 1004.29 1003.65 1003.57 1002.87 1001.95 1001.72 1001.41 1001.87 1002.01 1001.53 1001.41 1001.87 1002.12 1002.34 1002.38 1001.73 1001.39 1001.17 1001.42 1001.25 1001.37 1001.06 1000.63 1000.99 1000.80 1000.85 1000.24 999.68 998.99 999.79 1000.30 1000.63 1000.51 1000.22 1000.02 1000.11 1000.23
1010.21 1008.28 1009.84 1009.93 1008.29 1006.43 1005.12 1004.79 1005.47 1003.62 1003.42 1003.01 1002.72 1001.80 1001.55 1001.66 1001.65 1001.59 1001.48 1001.63 1002.49 1002.46 1002.24 1002.05 1001.09 1000.71 1000.80 1002.03 1002.24 1001.80 1001.51 1001.15 1000.78 1000.73 1000.86 1001.09 1000.20 1000.12 1000.53 1000.60 1000.61 1000.41 1000.37 1000.41 1000.86
1009.22 1008.60 1009.41 1008.82 1006.39 1005.40 1004.97 1004.72 1004.43 1003.51 1003.09 1002.77 1002.20 1002.12 1002.15 1001.77 1001.78 1001.65 1001.84 1002.51 1002.84 1002.60 1002.30 1002.23 1001.43 1000.53 1000.50 1001.45 1002.06 1001.68 1001.50 1001.72 1001.46 1001.24 1000.74 1000.46 1000.06 999.94 1000.04 1000.29 1000.21 1000.10 1000.07 1000.58 1000.96
1009.18 1007.51 1008.10 1007.68 1006.41 1004.92 1004.34 1004.07 1003.73 1003.65 1003.39 1003.01 1002.32 1002.15 1002.10 1001.86 1002.12 1001.65 1001.71 1002.46 1002.92 1002.78 1003.36 1003.07 1001.36 1001.19 1000.80 1000.92 1001.55 1001.54 1001.34 1001.62 1001.51 1000.92 1000.45 1000.15 999.93 999.83 999.95 1000.05 999.95 1000.05 1000.48 1000.75 1000.89
1008.85 1006.49 1005.88 1005.80 1005.57 1004.86 1004.62 1004.22 1003.45 1003.08 1003.28 1002.88 1002.24 1001.96 1001.45 1001.23 1001.48 1001.17 1001.41 1001.98 1002.77 1003.37 1003.22 1002.54 1001.66 1001.53 1001.49 1001.46 1001.71 1001.59 1001.49 1001.44 1001.17 1001.25 1000.95 1000.53 1000.34 1000.13 1000.14 1000.24 1000.33 1000.53 1000.55 1000.82 1000.97
1008.30 1006.84 1006.73 1005.47 1005.14 1005.01 1004.47 1003.79 1003.45 1003.06 1003.04 1002.26 1001.87 1001.84 1001.58 1001.02 1000.82 1000.54 1000.77 1001.22 1001.54 1002.89 1002.72 1002.36 1002.25 1002.20 1001.77 1001.45 1001.24 1001.35 1001.33 1001.15 1001.01 1000.84 1000.77 1000.80 1000.52 1000.59 1001.12 1001.03 1000.73 1000.64 1000.50 1000.65 1001.01
1009.50 1008.29 1006.83 1005.58 1004.84 1004.50 1003.78 1003.71 1003.65 1003.76 1003.25 1003.05 1002.82 1001.98 1001.77 1002.30 1002.08 1001.42 1001.21 1001.22 1001.48 1001.76 1002.04 1002.08 1002.04 1002.25 1001.67 1001.70 1001.59 1001.45 1000.59 1000.47 1000.59 1000.82 1000.83 1001.10 1001.59 1002.00 1001.98 1001.80 1001.41 1000.96 1000.89 1000.71 1000.87
Thickness
5747 5748 5749 5752 5756 5762 5767 5771 5773 5777 5785 5792 5798 5804 5808 5812 5821 5828 5828 5841 5845 5846 5847 5844 5841 5840 5842 5836 5839 5840 5825 5813 5814 5815 5820 5835 5828 5837 5843 5830 5831 5831 5831 5835 5825
5747 5748 5749 5753 5758 5764 5769 5772 5774 5780 5788 5795 5800 5805 5809 5814 5827 5833 5849 5847 5848 5848 5845 5837 5830 5833 5832 5833 5837 5830 5828 5824 5835 5834 5831 5837 5838 5838 5833 5828 5825 5823 5832 5831 5823
5747 5748 5750 5755 5761 5766 5771 5772 5777 5783 5791 5797 5802 5806 5811 5815 5826 5841 5852 5850 5848 5849 5852 5846 5843 5833 5827 5836 5837 5833 5825 5834 5838 5846 5845 5843 5840 5848 5836 5823 5835 5825 5821 5822 5821
5746 5748 5751 5757 5762 5767 5771 5773 5780 5787 5794 5799 5803 5808 5813 5824 5810 5848 5851 5850 5849 5854 5849 5843 5837 5829 5829 5828 5842 5828 5838 5836 5840 5850 5847 5840 5849 5839 5839 5837 5848 5841 5830 5825 5819
5746 5749 5752 5759 5763 5767 5771 5776 5783 5790 5796 5801 5805 5810 5820 5825 5834 5852 5852 5850 5851 5850 5839 5835 5830 5830 5824 5835 5837 5831 5838 5844 5848 5853 5850 5850 5838 5839 5835 5843 5848 5838 5828 5823 5823
5747 5749 5754 5760 5766 5770 5774 5779 5786 5792 5799 5804 5808 5812 5823 5818 5853 5853 5855 5854 5851 5844 5839 5838 5835 5841 5832 5832 5829 5840 5840 5843 5847 5849 5851 5842 5841 5841 5835 5844 5837 5831 5826 5825 5825
5748 5750 5755 5762 5767 5772 5777 5783 5788 5794 5801 5806 5809 5816 5823 5830 5853 5852 5856 5853 5853 5850 5841 5848 5848 5837 5836 5826 5844 5844 5834 5844 5847 5838 5843 5849 5832 5833 5843 5844 5833 5830 5827 5826 5826
5749 5752 5756 5763 5769 5774 5779 5786 5791 5798 5804 5809 5812 5821 5825 5854 5855 5853 5856 5853 5858 5859 5854 5856 5855 5845 5839 5846 5842 5837 5839 5825 5844 5845 5842 5841 5819 5836 5845 5840 5833 5833 5829 5826 5828
5749 5754 5758 5765 5771 5776 5783 5791 5798 5802 5807 5811 5819 5823 5829 5853 5845 5858 5860 5847 5850 5855 5856 5856 5852 5845 5844 5833 5828 5833 5818 5820 5832 5852 5848 5842 5829 5842 5847 5843 5836 5834 5833 5831 5831
5750 5754 5759 5766 5772 5777 5787 5795 5802 5805 5811 5817 5823 5815 5841 5839 5854 5859 5862 5858 5846 5849 5846 5844 5843 5837 5839 5836 5809 5819 5830 5835 5830 5845 5846 5840 5840 5850 5848 5844 5842 5838 5837 5836 5836
5752 5756 5760 5767 5773 5779 5794 5806 5810 5811 5819 5832 5834 5834 5843 5853 5863 5853 5859 5853 5853 5844 5831 5843 5838 5839 5843 5846 5840 5840 5837 5835 5848 5851 5843 5843 5843 5852 5857 5849 5844 5844 5842 5839 5841
5753 5758 5762 5768 5775 5781 5791 5813 5820 5821 5819 5843 5840 5839 5851 5858 5838 5848 5863 5840 5839 5830 5842 5838 5835 5847 5853 5850 5844 5846 5843 5844 5853 5855 5848 5850 5853 5859 5859 5853 5852 5849 5849 5849 5849
5754 5759 5765 5770 5777 5787 5807 5817 5830 5832 5820 5835 5844 5844 5850 5853 5844 5846 5855 5849 5836 5830 5837 5826 5845 5855 5848 5849 5844 5852 5844 5845 5844 5853 5856 5852 5846 5853 5856 5861 5860 5862 5863 5861 5858
5754 5760 5766 5772 5779 5805 5809 5825 5829 5832 5813 5826 5835 5850 5854 5859 5843 5870 5867 5853 5840 5830 5838 5843 5856 5846 5847 5846 5854 5855 5856 5854 5851 5849 5844 5860 5824 5846 5860 5861 5860 5864 5864 5867 5868
5755 5760 5766 5770 5793 5803 5815 5823 5830 5826 5783 5836 5841 5872 5864 5849 5855 5850 5871 5856 5836 5838 5838 5841 5845 5846 5843 5848 5855 5842 5860 5858 5856 5852 5852 5847 5850 5847 5860 5852 5862 5874 5875 5877 5878
5755 5760 5764 5774 5787 5808 5815 5822 5823 5800 5784 5825 5848 5842 5842 5852 5853 5854 5852 5863 5862 5846 5851 5849 5869 5856 5859 5861 5862 5862 5856 5857 5861 5860 5833 5840 5845 5840 5858 5863 5871 5882 5883 5883 5882
5756 5760 5764 5779 5800 5806 5814 5816 5797 5792 5831 5824 5832 5845 5846 5842 5844 5848 5840 5836 5835 5823 5831 5851 5856 5865 5863 5853 5864 5858 5862 5846 5834 5842 5827 5846 5841 5845 5871 5877 5881 5882 5885 5887 5887
5757 5760 5771 5782 5796 5804 5811 5805 5781 5815 5822 5842 5843 5846 5834 5846 5843 5843 5841 5837 5852 5845 5837 5835 5821 5853 5865 5859 5852 5861 5861 5843 5804 5825 5835 5844 5833 5853 5879 5883 5883 5882 5885 5888 5882
5758 5769 5780 5794 5794 5802 5805 5791 5806 5818 5832 5831 5836 5827 5832 5839 5838 5839 5842 5847 5856 5855 5835 5835 5835 5865 5864 5868 5865 5852 5847 5868 5847 5848 5832 5850 5856 5878 5875 5874 5877 5877 5879 5881 5882
5776 5783 5792 5793 5797 5801 5799 5791 5814 5832 5835 5836 5823 5839 5824 5832 5827 5838 5845 5861 5854 5865 5872 5850 5831 5859 5861 5869 5866 5858 5866 5841 5856 5807 5804 5841 5835 5844 5852 5858 5865 5871 5876 5882 5886
5776 5787 5789 5795 5800 5796 5791 5808 5817 5839 5837 5830 5835 5835 5842 5833 5839 5842 5846 5856 5862 5857 5864 5862 5852 5846 5859 5848 5841 5851 5850 5846 5848 5836 5813 5813 5839 5867 5853 5856 5857 5867 5876 5877 5879
5792 5786 5792 5797 5787 5805 5801 5813 5805 5832 5842 5838 5842 5847 5843 5846 5839 5840 5841 5853 5865 5864 5846 5864 5861 5836 5842 5852 5855 5853 5841 5847 5821 5817 5827 5814 5819 5869 5861 5860 5861 5863 5868 5873 5870
5791 5789 5794 5799 5786 5796 5811 5812 5823 5829 5833 5835 5839 5847 5850 5843 5829 5843 5846 5860 5861 5860 5853 5860 5848 5830 5836 5844 5846 5837 5845 5843 5842 5838 5817 5804 5818 5870 5865 5860 5865 5863 5868 5866 5864
5789 5779 5785 5794 5805 5806 5805 5809 5813 5833 5830 5838 5842 5850 5842 5838 5844 5839 5845 5854 5858 5861 5839 5849 5854 5835 5821 5830 5838 5825 5837 5838 5834 5817 5822 5827 5830 5848 5852 5851 5858 5860 5859 5857 5857
5789 5793 5804 5784 5793 5804 5809 5810 5813 5818 5834 5843 5839 5843 5846 5836 5838 5841 5851 5851 5852 5833 5847 5851 5829 5839 5841 5842 5837 5833 5830 5831 5825 5827 5812 5826 5826 5842 5848 5848 5850 5853 5854 5848 5845
5785 5790 5794 5798 5803 5797 5790 5809 5811 5824 5828 5833 5837 5846 5852 5846 5852 5844 5853 5850 5845 5843 5841 5850 5820 5827 5822 5839 5838 5825 5833 5835 5835 5835 5832 5831 5827 5852 5847 5847 5843 5843 5843 5840 5836
5781 5789 5793 5784 5799 5799 5807 5809 5815 5820 5831 5837 5837 5846 5845 5844 5855 5864 5867 5866 5858 5845 5838 5836 5828 5813 5803 5828 5822 5805 5833 5839 5839 5842 5835 5813 5822 5831 5824 5825 5828 5833 5833 5831 5832